Tracking 20232 objects as of 19-Jan-2020
HD Live streaming from Space Station
objects crossing your sky now

SEA LAUNCH DEMO

Track SEA LAUNCH DEMO now!
SEA LAUNCH DEMO is classified as:


NORAD ID: 25661
Int'l Code: 1999-014A
Perigee: 644.8 km
Apogee: 36,071.3 km
Inclination: 1.1 °
Period: 645.0 minutes
Semi major axis: 24729 km
RCS: 5.9526 m2 (large)
Launch date: March 28, 1999
Source: Sea Launch (SEAL)
Launch site: SEA LAUNCH (SEAL)
aabbcc
Your satellite tracking list
Your tracking list is empty




NASA's NSSDC Master Catalog

Two Line Element Set (TLE):
1 25661U 99014A   20018.15805861 -.00000070 +00000-0 +12259-2 0  9997
2 25661 001.0514 106.7198 7162951 043.3233 354.3500 02.23250243169777
Source of the keplerian elements: AFSPC